| time (UTC) | temp C | wind direction | speed KPH | gust KPH | rain 1hr cm | rain 24hr cm | rain mn cm | humidity % | barometer mb |
| 20260506044500 | 16 | 180 | 6.4 | 16.1 | 0.00 | 0.00 | 0.00 | 50 | 1009.3 |
| 20260506042959 | 16 | 134 | 6.4 | 17.7 | 0.00 | 0.00 | 0.00 | 50 | 1009.3 |
| 20260506041459 | 17 | 197 | 6.4 | 14.5 | 0.00 | 0.00 | 0.00 | 50 | 1009.4 |
| 20260506040004 | 17 | 136 | 6.4 | 17.7 | 0.00 | 0.00 | 0.00 | 49 | 1009.5 |
| 20260506034459 | 17 | 154 | 4.8 | 17.7 | 0.00 | 0.00 | 0.00 | 50 | 1009.5 |
| 20260506032959 | 17 | 188 | 4.8 | 12.9 | 0.00 | 0.00 | 0.00 | 50 | 1009.4 |
| 20260506031459 | 17 | 255 | 3.2 | 8.0 | 0.00 | 0.00 | 0.00 | 50 | 1009.4 |
| 20260506030000 | 18 | 156 | 4.8 | 12.9 | 0.00 | 0.00 | 0.00 | 49 | 1009.4 |
| 20260506024500 | 18 | 221 | 3.2 | 14.5 | 0.00 | 0.00 | 0.00 | 49 | 1009.4 |
| 20260506022959 | 18 | 174 | 3.2 | 12.9 | 0.00 | 0.00 | 0.00 | 49 | 1009.5 |
| 20260506021500 | 18 | 155 | 3.2 | 9.7 | 0.00 | 0.00 | 0.00 | 48 | 1009.6 |
| 20260506020000 | 18 | 139 | 3.2 | 11.3 | 0.00 | 0.00 | 0.00 | 47 | 1009.6 |
| 20260506014459 | 19 | 218 | 3.2 | 11.3 | 0.00 | 0.00 | 0.00 | 46 | 1009.6 |
| 20260506011459 | 20 | 143 | 4.8 | 12.9 | 0.00 | 0.00 | 0.00 | 44 | 1009.2 |
| 20260506010000 | 20 | 156 | 4.8 | 11.3 | 0.00 | 0.00 | 0.00 | 44 | 1009.0 |
| 20260506004458 | 20 | 186 | 3.2 | 9.7 | 0.00 | 0.00 | 0.00 | 43 | 1008.8 |
| 20260506002959 | 21 | 257 | 4.8 | 9.7 | 0.00 | 0.00 | 0.00 | 42 | 1008.8 |
| 20260506001459 | 21 | 165 | 6.4 | 19.3 | 0.00 | 0.00 | 0.00 | 42 | 1008.5 |
| 20260506000000 | 21 | 191 | 6.4 | 17.7 | 0.00 | 0.00 | 0.00 | 42 | 1008.4 |
| 20260505234459 | 21 | 150 | 6.4 | 19.3 | 0.00 | 0.00 | 0.00 | 42 | 1008.2 |
| 20260505232959 | 21 | 215 | 4.8 | 22.5 | 0.00 | 0.00 | 0.00 | 42 | 1008.2 |
| 20260505231500 | 21 | 252 | 6.4 | 19.3 | 0.00 | 0.00 | 0.00 | 42 | 1008.0 |
| 20260505224458 | 21 | 162 | 9.7 | 22.5 | 0.00 | 0.00 | 0.00 | 42 | 1008.1 |
| 20260505222959 | 21 | 179 | 4.8 | 19.3 | 0.00 | 0.00 | 0.00 | 43 | 1008.0 |
| 20260505221500 | 21 | 225 | 4.8 | 22.5 | 0.00 | 0.00 | 0.00 | 43 | 1007.9 |
| 20260505220002 | 21 | 200 | 4.8 | 14.5 | 0.00 | 0.00 | 0.00 | 43 | 1007.8 |
| 20260505214458 | 21 | 198 | 6.4 | 20.9 | 0.00 | 0.00 | 0.00 | 43 | 1007.8 |
| 20260505212958 | 21 | 251 | 8.0 | 20.9 | 0.00 | 0.00 | 0.00 | 43 | 1007.9 |
| 20260505211458 | 22 | 167 | 8.0 | 19.3 | 0.00 | 0.00 | 0.00 | 41 | 1007.6 |
| 20260505210000 | 22 | 162 | 9.7 | 25.7 | 0.00 | 0.00 | 0.00 | 40 | 1007.5 |
| 20260505204458 | 23 | 264 | 9.7 | 27.4 | 0.00 | 0.00 | 0.00 | 39 | 1007.5 |
| 20260505200002 | 23 | 79 | 14.5 | 33.8 | 0.00 | 0.00 | 0.00 | 37 | 1007.2 |
| 20260505194459 | 25 | 156 | 11.3 | 33.8 | 0.00 | 0.00 | 0.00 | 36 | 1007.4 |
| 20260505192958 | 25 | 232 | 11.3 | 33.8 | 0.00 | 0.00 | 0.00 | 36 | 1007.4 |
| 20260505191458 | 24 | 238 | 12.9 | 32.2 | 0.00 | 0.00 | 0.00 | 35 | 1007.6 |
| 20260505190003 | 25 | 226 | 12.9 | 27.4 | 0.00 | 0.00 | 0.00 | 33 | 1008.0 |
| 20260505184459 | 25 | 338 | 9.7 | 27.4 | 0.00 | 0.00 | 0.00 | 35 | 1008.2 |
| 20260505182959 | 23 | 193 | 8.0 | 24.1 | 0.00 | 0.00 | 0.00 | 40 | 1008.3 |
| 20260505181459 | 24 | 194 | 9.7 | 25.7 | 0.00 | 0.00 | 0.00 | 39 | 1008.4 |
| 20260505174501 | 25 | 235 | 11.3 | 33.8 | 0.00 | 0.00 | 0.00 | 39 | 1008.8 |
| 20260505172958 | 24 | 238 | 9.7 | 30.6 | 0.00 | 0.00 | 0.00 | 40 | 1008.5 |
| 20260505171459 | 23 | 208 | 9.7 | 29.0 | 0.00 | 0.00 | 0.00 | 41 | 1008.7 |
| 20260505162959 | 22 | 278 | 8.0 | 16.1 | 0.00 | 0.00 | 0.00 | 45 | 1009.2 |
| 20260505161459 | 22 | 252 | 9.7 | 27.4 | 0.00 | 0.00 | 0.00 | 45 | 1009.3 |
| 20260505152957 | 22 | 266 | 6.4 | 24.1 | 0.00 | 0.00 | 0.00 | 47 | 1009.8 |
| 20260505151459 | 21 | 215 | 9.7 | 24.1 | 0.00 | 0.00 | 0.00 | 47 | 1009.9 |
| 20260505124458 | 18 | 155 | 4.8 | 12.9 | 0.00 | 0.00 | 0.00 | 57 | 1010.3 |
| 20260505122958 | 17 | 162 | 6.4 | 16.1 | 0.00 | 0.00 | 0.00 | 61 | 1010.4 |
| 20260505121457 | 16 | 126 | 4.8 | 12.9 | 0.00 | 0.00 | 0.00 | 62 | 1010.5 |
| 20260505120001 | 16 | 183 | 4.8 | 11.3 | 0.00 | 0.00 | 0.00 | 62 | 1010.2 |
| 20260505112959 | 15 | 135 | 4.8 | 9.7 | 0.00 | 0.00 | 0.00 | 68 | 1010.2 |
| 20260505111500 | 13 | 232 | 4.8 | 12.9 | 0.00 | 0.00 | 0.00 | 70 | 1010.2 |
| 20260505095959 | 10 | 166 | 1.6 | 6.4 | 0.00 | 0.00 | 0.00 | 73 | 1009.6 |
| 20260505092958 | 11 | 217 | 3.2 | 6.4 | 0.00 | 0.00 | 0.00 | 70 | 1009.4 |
| 20260505091458 | 11 | 208 | 3.2 | 9.7 | 0.00 | 0.00 | 0.00 | 69 | 1009.4 |
| 20260505085958 | 11 | 177 | 3.2 | 8.0 | 0.00 | 0.00 | 0.00 | 68 | 1009.4 |
| 20260505084457 | 11 | 146 | 3.2 | 9.7 | 0.00 | 0.00 | 0.00 | 68 | 1009.4 |
| 20260505081458 | 11 | 148 | 1.6 | 6.4 | 0.00 | 0.00 | 0.00 | 67 | 1009.4 |
| 20260505074458 | 11 | 145 | 3.2 | 6.4 | 0.00 | 0.00 | 0.00 | 66 | 1009.2 |
| 20260505072958 | 11 | 233 | 1.6 | 8.0 | 0.00 | 0.00 | 0.00 | 64 | 1009.2 |
| 20260505071457 | 12 | 147 | 1.6 | 6.4 | 0.00 | 0.00 | 0.00 | 64 | 1009.2 |
| 20260505070000 | 12 | 145 | 1.6 | 9.7 | 0.00 | 0.00 | 0.00 | 62 | 1009.3 |
| 20260505063000 | 13 | 207 | 3.2 | 11.3 | 0.00 | 0.00 | 0.00 | 61 | 1009.4 |